Weather Roundup
Issued by NWS

Home | Current Version | Previous Version | Graphics & Text | Print | Product List | Glossary Off
Versions: 1 2 3 4 5 6 7 8 9 10 11 12 13 14 15 16 17 18 19 20 21 22 23 24 25 26 27 28 29 30 31 32 33 34 35 36 37 38 39 40 41 42 43 44 45 46 47 48 49 50

000
NZUS93 KARX 220559
HRRWXR

CURRENT HOURLY OBSERVATIONS ACROSS
MUCH OF THE UPPER MISSISSIPPI VALLEY
NATIONAL WEATHER SERVICE LA CROSSE WI
100 AM CDT SUN OCT 22 2017


...SOUTHEAST MINNESOTA...


CITY           SKY/WX    TMP DP  RH WIND       PRES   REMARKS
ROCHESTER      CLOUDY    51  46  83 W12       29.89R
ROCHESTER/MAYO FAIR      52  46  78 W16G22    29.89R
WINONA         LGT RAIN  54  52  94 NW6       29.86S
AUSTIN         CLOUDY    50  45  81 NW10      29.89S
ALBERT LEA     NOT AVBL
DODGE CENTER   CLOUDY    50  43  76 W9        29.90R
PRESTON        CLOUDY    52  49  90 NW10G16   29.88R
OWATONNA       PTCLDY    48  45  87 W5        29.90R
FARIBAULT      CLOUDY    50  45  81 W7        29.90R
$$

...ELSEWHERE IN MINNESOTA...


CITY           SKY/WX    TMP DP  RH WIND       PRES   REMARKS
MINNEAPOLIS    CLOUDY    52  45  77 W9        29.87R
INTNL FALLS    MOCLDY    47  44  90 S6        29.63R
DULUTH         CLOUDY    52  50  93 W13       29.74R
RED WING       CLOUDY    54  45  71 W9        29.87R
REDWOOD FALLS  PTCLDY    46  39  76 SW9       29.89R
MANKATO        MOCLDY    48  43  82 W7        29.90R
WORTHINGTON    CLEAR     43  38  82 W7        29.93F
FAIRMONT       CLOUDY    48  42  80 W8        29.92S
$$

...SOUTHWEST WISCONSIN...


CITY           SKY/WX    TMP DP  RH WIND       PRES   REMARKS
LA CROSSE      LGT RAIN  60  58  92 MISG      29.82R
PRAIRIE DU CHI LGT RAIN  60  57  89 CALM      29.85S
BOSCOBEL       LGT RAIN  62  59  90 SW6       29.86S
LONE ROCK      CLOUDY    68  59  73 W17       29.87R
PLATTEVILLE    CLOUDY    69  61  75 S17G23    29.87S
FORT MC COY    RAIN      60  58  96 SW5       29.84F
MAUSTON-NEW LI HVY RAIN  62  58  87 SW9G32    29.86R
VIROQUA        CLOUDY    60  60 100 SW9       29.84F
WIS DELLS      CLOUDY    68  57  68 S15G23    29.86S
$$

...ELSEWHERE IN WISCONSIN...


CITY           SKY/WX    TMP DP  RH WIND       PRES   REMARKS
MILWAUKEE      MOCLDY    65  58  78 S10       29.96S
MADISON        PTCLDY    68  58  70 S15G24    29.88F
GREEN BAY      CLEAR     66  59  78 S14       29.90S
EAU CLAIRE     LGT RAIN  55  52  89 W8        29.83R
BLACK RVR FLS  RAIN      62  62 100 S8        29.83R
MEDFORD        HVY RAIN  59  58  96 S7        29.83S
WAUSAU         LGT RAIN  66  60  81 SW12      29.82S
WIS RAPIDS     LGT RAIN  69  60  73 S12       29.84R
MARSHFIELD     LGT RAIN  61  58  90 SW9       29.84R
RICE LAKE      CLOUDY    53  50  89 SW3       29.84R
$$

...NORTHEAST IOWA...


CITY           SKY/WX    TMP DP  RH WIND       PRES   REMARKS
WATERLOO       LGT RAIN  53  49  86 W9        29.91R
DUBUQUE        CLOUDY    65  57  75 W7        29.89R
DECORAH        CLOUDY    54  52  94 NW9G16    29.85F
MASON CITY     MOCLDY    50  43  77 NW12      29.93S
CHARLES CITY   CLOUDY    52  50  93 NW10G17   29.90S
OELWEIN        CLOUDY    55  55 100 NW16G22   29.87S
$$

...ELSEWHERE IN IOWA...


CITY           SKY/WX    TMP DP  RH WIND       PRES   REMARKS
DES MOINES     LGT RAIN  52  47  83 NW10      29.92F
IOWA CITY      LGT RAIN  62  60  93 SW3       29.90S
FORT DODGE     CLOUDY    50  43  77 W5        29.94F
MARSHALLTOWN   LGT RAIN  52  49  89 NW12      29.92R
CEDAR RAPIDS   HVY RAIN  58  57  97 NW15      29.88S FOG
$$

...NORTHERN ILLINOIS...


CITY           SKY/WX    TMP DP  RH WIND       PRES   REMARKS
CHICAGO-OHARE  PTCLDY    68  54  60 S16       29.99F
CHICAGO-MIDWAY PTCLDY    67  54  63 S14       30.01S
MOLINE         CLOUDY    71  57  61 S15       29.87S
ROCKFORD       CLOUDY    68  56  65 S18G29    29.95S
PEORIA         CLOUDY    70  59  68 S17G26    29.94F
$$

NOTE: "FAIR" INDICATES FEW OR NO CLOUDS BELOW 12,000 FEET WITH NO
SIGNIFICANT WEATHER AND/OR OBSTRUCTIONS TO VISIBILITY. WIND
SPEEDS ARE IN MILES-PER-HOUR.




USA.gov is the U.S. government's official web portal to all federal, state and local government web resources and services.